Liberia, Costa Rica

12:07 AM CST on April 26, 2017 (GMT -0600)
Daniel Oduber Quiros International

Weather History for MRLB - March, 2012

Change the Weather History Date:

Thursday, March 22, 2012

  Actual Average Record
Temperature  
Mean Temperature 80 °F -  
Max Temperature 95 °F 93 °F 98 °F (2013)
Min Temperature 66 °F 76 °F 66 °F (2012)
Cooling Degree Days 16    
Growing Degree Days 30 (Base 50)    
Moisture  
Dew Point 62 °F    
Average Humidity 45    
Maximum Humidity 88    
Minimum Humidity 22    
Precipitation  
Precipitation 0.00 in - - ()
Sea Level Pressure  
Sea Level Pressure 29.79 in    
Wind  
Wind Speed 9 mph ()    
Max Wind Speed 23 mph    
Max Gust Speed -    
Visibility 9.1 miles    
Events      
Averages and records for this station are not official NWS values.
T = Trace of Precipitation, MM = Missing Value Source: Averaged Metar Reports

Daily Weather History Graph

Daily Weather History Graph

Search for Another Location

Airport or City:

Trip Planner

Search our weather history database for the weather conditions in past years. The results will help you decide how hot, cold, wet, or windy it might be!

Date:

Astronomy

Mar. 22, 2012 Rise Set
Actual Time 5:44 AM CST 5:52 PM CST
Civil Twilight 5:23 AM CST 6:14 PM CST
Nautical Twilight 4:59 AM CST 6:38 PM CST
Astronomical Twilight 4:34 AM CST 7:02 PM CST
Moon 5:32 AM CST (3/22) 6:02 PM CST (3/22)
Length of Visible Light 12h 50m
Length of Day
12h 08m
New Moon, 0% of the Moon is Illuminated
Mar 22
New Moon
Mar 30
First Quarter
Apr 6
Full
Apr 13
Last Quarter
Apr 21
New

Hourly Weather History & Observations

Time (CST) Temp. Heat Index Dew Point Humidity Pressure Visibility Wind Dir Wind Speed Gust Speed Precip Events Conditions
6:00 AM 67 °F - 63 °F 81% 29.76 in 12 mi North 2.3 mph - -  
6:00 AM 66.2 °F - 62.6 °F 88% 29.80 in - North 2.3 mph - N/A   Clear
7:00 AM 71.6 °F - 64.4 °F 78% 29.82 in - NNE 4.6 mph - N/A   Clear
8:00 AM 82.4 °F 83.4 °F 62.6 °F 51% 29.84 in - SSW 4.6 mph - N/A   Clear
9:00 AM 86 °F - 62 °F 35% 29.83 in 12 mi North 5.8 mph - -  
9:00 AM 86.0 °F 86.6 °F 62.6 °F 45% 29.87 in - North 5.8 mph - N/A   Clear
10:00 AM 87.8 °F 88.5 °F 62.6 °F 43% 29.87 in - NNE 8.1 mph - N/A   Clear
11:00 AM 93.2 °F 92.6 °F 59.0 °F 32% 29.84 in - ENE 17.3 mph - N/A   Clear
12:00 PM 94 °F - 60 °F 22% 29.82 in 12 mi ENE 17.3 mph - -   Scattered Clouds
12:00 PM 93.2 °F 93.3 °F 60.8 °F 34% 29.82 in 6.2 mi ENE 17.3 mph - N/A   Partly Cloudy
1:00 PM 93.2 °F 93.3 °F 60.8 °F 34% 29.78 in 6.2 mi East 16.1 mph - N/A   Partly Cloudy
2:00 PM 95.0 °F 95.2 °F 60.8 °F 32% 29.75 in 6.2 mi ENE 16.1 mph - N/A   Partly Cloudy
3:00 PM 94 °F - 61 °F 23% 29.71 in 12 mi East 16.1 mph - -   Scattered Clouds
3:00 PM 93.2 °F 93.3 °F 60.8 °F 34% 29.72 in 6.2 mi East 16.1 mph - N/A   Partly Cloudy
4:00 PM 91.4 °F 91.4 °F 60.8 °F 36% 29.72 in 6.2 mi ENE 19.6 mph - N/A   Partly Cloudy
5:00 PM 87.8 °F 88.5 °F 62.6 °F 43% 29.73 in - ENE 23.0 mph - N/A   Clear
6:00 PM 84 °F - 64 °F 41% 29.70 in 12 mi ENE 19.6 mph - -  
7:00 PM 82.4 °F 82.9 °F 60.8 °F 48% 29.76 in - East 17.3 mph - N/A   Clear
8:00 PM 82.4 °F 83.4 °F 62.6 °F 51% 29.79 in - ENE 18.4 mph - N/A   Clear